Location: ????????
(55.0097°N, 38.5678°E)
Time: 03:40:43
(UTC+00:00)

NOSS 3-1 (C) - Pass Details

Date: 14 April 2024
Orbit: 652 x 1553 km, 63.4° (Epoch: 15 May)

Event Time Altitude Azimuth Distance (km) Brightness Sun altitude
Rises 23:59:46 0° 305° (NW) 3,584 6.4 -17.9°
Reaches altitude 10° 00:02:07 10° 308° (NW) 2,754 5.8 -17.7°
Maximum altitude 00:08:41 66° 31° (NNE) 1,262 4.3 -17.1°
Drops below altitude 10° 00:16:54 10° 113° (ESE) 3,409 6.6 -16.3°
Sets 00:20:05 0° 116° (ESE) 4,490 7.2 -15.9°
